This demonstration page uses our WeatherBlox Daily Observations layout. Learn more.

Left ArrowRight Arrow

38.88101, -77.10428

Hourly Observations for September 27, 2021

Temp ( °F °C ) Dew Point ( °F °C ) Humidity (%) Winds ( mph kmh ) Pressure ( in mb ) Visibility ( mi km ) Precip ( " mm )
12:52 am 00:52 Clear 61 16.1 51 10.6 70 70 SW 5 7 30.06 1018 10 16 N/A
1:52 am 01:52 Clear 61 16.1 51 10.6 70 70 SW 3 6 30.06 1018 10 16 N/A
2:52 am 02:52 Clear 60 15.6 51 10.6 72 72 SSW 5 7 30.06 1018 10 16 N/A
3:52 am 03:52 Clear 60 15.6 50 10 70 70 SSW 3 6 30.06 1018 10 16 N/A
4:52 am 04:52 Clear 58 14.4 51 10.6 78 78 SSW 5 7 30.06 1018 10 16 N/A
5:52 am 05:52 Clear 58 14.4 50 10 75 75 SW 5 7 30.07 1018 10 16 N/A
6:52 am 06:52 Mostly Clear 59 15 51 10.6 75 75 N N/A 30.09 1019 10 16 N/A
7:52 am 07:52 Sunny 59 15 52 11.1 78 78 SW 3 6 30.09 1019 10 16 N/A
8:52 am 08:52 Mostly Sunny 63 17.2 54 12.2 73 73 S 5 7 30.09 1019 10 16 N/A
9:52 am 09:52 Partly Cloudy 66 18.9 54 12.2 65 65 SSE 3 6 30.08 1019 10 16 N/A
10:52 am 10:52 Partly Cloudy 70 21.1 55 12.8 59 59 S 9 15 30.07 1018 10 16 N/A
11:52 am 11:52 Sunny 74 23.3 53 11.7 48 48 S 13 20 30.05 1018 10 16 N/A
12:52 pm 12:52 Partly Cloudy 77 25 49 9.4 37 37 SSW 14 22 30.03 1017 10 16 N/A
1:52 pm 13:52 Partly Cloudy 78 25.6 55 12.8 45 45 S 14 22 30.01 1016 10 16 N/A
2:52 pm 14:52 Partly Cloudy 79 26.1 53 11.7 41 41 S 16 26 29.98 1015 10 16 N/A
3:52 pm 15:52 Mostly Sunny 79 26.1 52 11.1 39 39 S 14 22 29.96 1014 10 16 N/A
4:52 pm 16:52 Partly Cloudy 79 26.1 53 11.7 41 41 SSW 10 17 29.94 1014 10 16 N/A
5:52 pm 17:52 Mostly Sunny 75 23.9 57 13.9 54 54 S 10 17 29.93 1014 10 16 N/A
6:52 pm 18:52 Mostly Cloudy 74 23.3 55 12.8 52 52 SSW 8 13 29.94 1014 10 16 N/A
7:52 pm 19:52 Partly Cloudy 71 21.7 58 14.4 63 63 S 9 15 29.94 1014 10 16 N/A
8:52 pm 20:52 Clear 72 22.2 55 12.8 55 55 SSW 13 20 29.94 1014 10 16 N/A
9:52 pm 21:52 Mostly Clear 71 21.7 56 13.3 59 59 S 13 20 29.93 1014 10 16 N/A
10:52 pm 22:52 Clear 70 21.1 56 13.3 61 61 SSW 9 15 29.92 1013 10 16 N/A
11:52 pm 23:52 Clear 70 21.1 56 13.3 61 61 SSW 9 15 29.91 1013 10 16 N/A

Powered by AerisWeather